Time,TemperatureF,DewpointF,PressureIn,WindDirection,WindDirectionDegrees,WindSpeedMPH,WindSpeedGustMPH,Humidity,HourlyPrecipIn,Conditions,Clouds,dailyrainin,SoftwareType,DateUTC
2013-11-02 00:13:00,44.0,40.0,29.78,WSW,250,0.0,3.0,85,0.00,,,0.00,,2013-11-02 05:13:00,
2013-11-02 00:22:00,43.0,39.0,29.77,SW,234,0.0,4.0,86,0.00,,,0.00,,2013-11-02 05:22:00,
2013-11-02 00:42:00,43.0,39.0,29.78,WSW,237,0.0,3.0,86,0.00,,,0.00,,2013-11-02 05:42:00,
2013-11-02 00:52:00,44.0,40.0,29.78,WSW,244,2.0,5.0,86,0.00,,,0.00,,2013-11-02 05:52:00,
2013-11-02 01:12:00,44.0,40.0,29.78,SSW,210,0.0,3.0,85,0.00,,,0.00,,2013-11-02 06:12:00,
2013-11-02 01:22:00,43.0,39.0,29.78,WSW,244,1.0,4.0,85,0.00,,,0.00,,2013-11-02 06:22:00,
2013-11-02 01:43:00,44.0,40.0,29.78,WSW,251,0.0,4.0,85,0.00,,,0.00,,2013-11-02 06:43:00,
2013-11-02 01:52:00,43.0,39.0,29.79,West,280,0.0,4.0,85,0.00,,,0.00,,2013-11-02 06:52:00,
2013-11-02 02:12:00,43.0,39.0,29.79,WSW,243,0.0,3.0,86,0.00,,,0.00,,2013-11-02 07:12:00,
2013-11-02 02:22:00,43.0,39.0,29.79,West,281,0.0,2.0,86,0.00,,,0.00,,2013-11-02 07:22:00,
2013-11-02 02:42:00,43.0,39.0,29.79,West,263,0.0,2.0,86,0.00,,,0.00,,2013-11-02 07:42:00,
2013-11-02 02:52:00,42.0,38.0,29.79,West,263,0.0,1.0,87,0.00,,,0.00,,2013-11-02 07:52:00,
2013-11-02 03:12:00,42.0,38.0,29.79,West,263,0.0,0.0,87,0.00,,,0.00,,2013-11-02 08:12:00,
2013-11-02 03:22:00,41.0,37.0,29.79,West,263,0.0,0.0,87,0.00,,,0.00,,2013-11-02 08:22:00,
2013-11-02 03:42:00,40.0,37.0,29.79,West,263,0.0,0.0,88,0.00,,,0.00,,2013-11-02 08:42:00,
2013-11-02 03:52:00,39.0,36.0,29.79,West,263,0.0,2.0,89,0.00,,,0.00,,2013-11-02 08:52:00,
2013-11-02 04:11:00,39.0,36.0,29.80,West,264,0.0,3.0,90,0.00,,,0.00,,2013-11-02 09:11:00,
2013-11-02 04:21:00,39.0,36.0,29.80,West,270,0.0,3.0,90,0.00,,,0.00,,2013-11-02 09:21:00,
2013-11-02 04:43:00,39.0,36.0,29.80,West,270,0.0,0.0,90,0.00,,,0.00,,2013-11-02 09:43:00,
2013-11-02 04:53:00,38.0,36.0,29.80,WSW,254,0.0,2.0,91,0.00,,,0.00,,2013-11-02 09:53:00,
2013-11-02 05:13:00,39.0,37.0,29.81,WNW,302,0.0,3.0,91,0.00,,,0.00,,2013-11-02 10:13:00,
2013-11-02 05:23:00,39.0,37.0,29.81,West,273,0.0,3.0,91,0.00,,,0.00,,2013-11-02 10:23:00,
2013-11-02 05:53:00,38.0,35.0,29.83,West,269,0.0,3.0,90,0.00,,,0.00,,2013-11-02 10:53:00,
2013-11-02 06:12:00,38.0,36.0,29.84,WNW,292,0.0,2.0,91,0.00,,,0.00,,2013-11-02 11:12:00,
2013-11-02 06:22:00,38.0,36.0,29.85,WNW,292,0.0,1.0,91,0.00,,,0.00,,2013-11-02 11:22:00,
2013-11-02 06:42:00,39.0,37.0,29.85,WNW,291,0.0,2.0,91,0.00,,,0.00,,2013-11-02 11:42:00,
2013-11-02 06:52:00,39.0,37.0,29.85,West,280,0.0,3.0,91,0.00,,,0.00,,2013-11-02 11:52:00,
2013-11-02 07:12:00,39.0,37.0,29.86,West,261,1.0,3.0,91,0.00,,,0.00,,2013-11-02 12:12:00,
2013-11-02 07:21:00,38.0,36.0,29.86,West,273,1.0,3.0,91,0.00,,,0.00,,2013-11-02 12:21:00,
2013-11-02 07:42:00,38.0,36.0,29.87,NW,325,0.0,2.0,91,0.00,,,0.00,,2013-11-02 12:42:00,
2013-11-02 07:52:00,38.0,36.0,29.88,West,265,0.0,4.0,91,0.00,,,0.00,,2013-11-02 12:52:00,
2013-11-02 08:12:00,38.0,36.0,29.88,West,265,0.0,3.0,91,0.00,,,0.00,,2013-11-02 13:12:00,
2013-11-02 08:22:00,38.0,36.0,29.89,NW,304,0.0,2.0,92,0.00,,,0.00,,2013-11-02 13:22:00,
2013-11-02 08:42:00,38.0,36.0,29.90,NW,326,0.0,4.0,91,0.00,,,0.00,,2013-11-02 13:42:00,
2013-11-02 08:52:00,39.0,37.0,29.91,West,277,1.0,6.0,91,0.00,,,0.00,,2013-11-02 13:52:00,
2013-11-02 09:11:00,40.0,37.0,29.92,NW,325,1.0,5.0,90,0.00,,,0.00,,2013-11-02 14:11:00,
2013-11-02 09:21:00,41.0,37.0,29.92,WNW,298,1.0,6.0,87,0.00,,,0.00,,2013-11-02 14:21:00,
2013-11-02 09:42:00,41.0,37.0,29.93,NE,45,2.0,7.0,87,0.00,,,0.00,,2013-11-02 14:42:00,
2013-11-02 09:52:00,42.0,38.0,29.94,SW,216,2.0,9.0,84,0.00,,,0.00,,2013-11-02 14:52:00,
2013-11-02 10:11:00,43.0,38.0,29.94,NNE,28,5.0,11.0,82,0.00,,,0.00,,2013-11-02 15:11:00,
2013-11-02 10:22:00,43.0,38.0,29.95,NNE,32,4.0,9.0,81,0.00,,,0.00,,2013-11-02 15:22:00,
2013-11-02 10:43:00,44.0,38.0,29.95,NNE,33,4.0,11.0,80,0.00,,,0.00,,2013-11-02 15:43:00,
2013-11-02 10:53:00,44.0,38.0,29.96,West,269,2.0,10.0,79,0.00,,,0.00,,2013-11-02 15:53:00,
2013-11-02 11:13:00,44.0,38.0,29.96,NW,326,2.0,9.0,79,0.00,,,0.00,,2013-11-02 16:13:00,
2013-11-02 11:23:00,44.0,38.0,29.98,West,275,3.0,9.0,79,0.00,,,0.00,,2013-11-02 16:23:00,
2013-11-02 11:42:00,43.0,37.0,29.99,NW,316,3.0,9.0,79,0.00,,,0.00,,2013-11-02 16:42:00,
2013-11-02 11:54:00,43.0,37.0,29.99,NNW,328,3.0,9.0,80,0.00,,,0.00,,2013-11-02 16:54:00,
2013-11-02 12:12:00,43.0,37.0,30.00,NE,51,2.0,9.0,80,0.00,,,0.00,,2013-11-02 17:12:00,
2013-11-02 12:22:00,44.0,37.0,30.00,SW,222,2.0,7.0,77,0.00,,,0.00,,2013-11-02 17:22:00,
2013-11-02 12:43:00,44.0,37.0,30.00,WSW,255,2.0,9.0,76,0.00,,,0.00,,2013-11-02 17:43:00,
2013-11-02 12:53:00,46.0,38.0,30.00,NNE,18,4.0,12.0,74,0.00,,,0.00,,2013-11-02 17:53:00,
2013-11-02 13:12:00,46.0,37.0,30.00,WSW,252,5.0,11.0,71,0.00,,,0.00,,2013-11-02 18:12:00,
2013-11-02 13:21:00,46.0,37.0,30.01,NNW,329,5.0,11.0,71,0.00,,,0.00,,2013-11-02 18:21:00,
2013-11-02 13:42:00,46.0,37.0,30.00,WNW,286,5.0,12.0,70,0.00,,,0.00,,2013-11-02 18:42:00,
2013-11-02 13:52:00,47.0,38.0,30.00,WNW,300,3.0,11.0,70,0.00,,,0.00,,2013-11-02 18:52:00,
2013-11-02 14:11:00,47.0,37.0,30.00,West,273,3.0,12.0,69,0.00,,,0.00,,2013-11-02 19:11:00,
2013-11-02 14:21:00,47.0,37.0,30.01,ESE,103,3.0,8.0,69,0.00,,,0.00,,2013-11-02 19:21:00,
2013-11-02 14:42:00,47.0,36.0,30.01,NW,315,3.0,10.0,66,0.00,,,0.00,,2013-11-02 19:42:00,
2013-11-02 14:52:00,47.0,37.0,30.01,WNW,294,1.0,8.0,68,0.00,,,0.00,,2013-11-02 19:52:00,
2013-11-02 15:12:00,47.0,37.0,30.02,North,355,2.0,8.0,67,0.00,,,0.00,,2013-11-02 20:12:00,
2013-11-02 15:22:00,47.0,36.0,30.02,NW,306,3.0,11.0,65,0.00,,,0.00,,2013-11-02 20:22:00,
2013-11-02 15:43:00,48.0,36.0,30.03,NE,40,1.0,11.0,63,0.00,,,0.00,,2013-11-02 20:43:00,
2013-11-02 15:53:00,47.0,35.0,30.03,WNW,296,3.0,9.0,64,0.00,,,0.00,,2013-11-02 20:53:00,
2013-11-02 16:12:00,47.0,35.0,30.04,West,281,3.0,8.0,63,0.00,,,0.00,,2013-11-02 21:12:00,
2013-11-02 16:22:00,47.0,35.0,30.04,West,279,2.0,8.0,64,0.00,,,0.00,,2013-11-02 21:22:00,
2013-11-02 16:44:00,47.0,35.0,30.05,WNW,301,1.0,7.0,63,0.00,,,0.00,,2013-11-02 21:44:00,
2013-11-02 16:54:00,47.0,35.0,30.05,North,350,1.0,8.0,63,0.00,,,0.00,,2013-11-02 21:54:00,
2013-11-02 17:24:00,47.0,35.0,30.06,WNW,288,0.0,8.0,64,0.00,,,0.00,,2013-11-02 22:24:00,
2013-11-02 17:44:00,46.0,35.0,30.06,NW,307,1.0,6.0,65,0.00,,,0.00,,2013-11-02 22:44:00,
2013-11-02 17:54:00,46.0,36.0,30.06,NW,311,0.0,3.0,67,0.00,,,0.00,,2013-11-02 22:54:00,
2013-11-02 18:12:00,46.0,36.0,30.07,WNW,286,0.0,3.0,68,0.00,,,0.00,,2013-11-02 23:12:00,
2013-11-02 18:22:00,45.0,36.0,30.07,WNW,286,0.0,1.0,70,0.00,,,0.00,,2013-11-02 23:22:00,
2013-11-02 18:42:00,44.0,35.0,30.08,WNW,286,0.0,1.0,71,0.00,,,0.00,,2013-11-02 23:42:00,
2013-11-02 18:52:00,43.0,35.0,30.09,WNW,286,0.0,0.0,74,0.00,,,0.00,,2013-11-02 23:52:00,
2013-11-02 19:11:00,42.0,35.0,30.09,WNW,286,0.0,0.0,76,0.00,,,0.00,,2013-11-03 00:11:00,
2013-11-02 19:22:00,42.0,35.0,30.10,NW,307,0.0,2.0,77,0.00,,,0.00,,2013-11-03 00:22:00,
2013-11-02 19:52:00,40.0,34.0,30.10,NW,307,0.0,0.0,80,0.00,,,0.00,,2013-11-03 00:52:00,
2013-11-02 20:11:00,39.0,33.0,30.10,NW,307,0.0,0.0,80,0.00,,,0.00,,2013-11-03 01:11:00,
2013-11-02 20:21:00,38.0,33.0,30.11,NW,307,0.0,0.0,82,0.00,,,0.00,,2013-11-03 01:21:00,
2013-11-02 20:42:00,38.0,33.0,30.12,NW,307,0.0,0.0,82,0.00,,,0.00,,2013-11-03 01:42:00,
2013-11-02 20:52:00,37.0,32.0,30.12,NW,307,0.0,0.0,83,0.00,,,0.00,,2013-11-03 01:52:00,
2013-11-02 21:11:00,37.0,32.0,30.12,NW,307,0.0,0.0,83,0.00,,,0.00,,2013-11-03 02:11:00,
2013-11-02 21:21:00,37.0,32.0,30.13,NW,307,0.0,0.0,82,0.00,,,0.00,,2013-11-03 02:21:00,
2013-11-02 21:52:00,36.0,31.0,30.14,NW,307,0.0,0.0,83,0.00,,,0.00,,2013-11-03 02:52:00,
2013-11-02 22:11:00,35.0,30.0,30.14,NW,307,0.0,0.0,83,0.00,,,0.00,,2013-11-03 03:11:00,
2013-11-02 22:22:00,35.0,31.0,30.15,NW,307,0.0,0.0,85,0.00,,,0.00,,2013-11-03 03:22:00,
2013-11-02 22:44:00,34.0,30.0,30.15,NW,307,0.0,0.0,86,0.00,,,0.00,,2013-11-03 03:44:00,
2013-11-02 22:54:00,34.0,30.0,30.15,NW,307,0.0,0.0,86,0.00,,,0.00,,2013-11-03 03:54:00,
2013-11-02 23:02:00,-999.0,-99.9,30.16,NW,307,0.0,0.0,-999,-99.99,,,-99.99,,2013-11-03 04:02:00,
2013-11-02 23:13:00,34.0,30.0,30.16,NW,307,0.0,0.0,86,0.00,,,0.00,,2013-11-03 04:13:00,
2013-11-02 23:23:00,34.0,30.0,30.15,NW,307,0.0,1.0,85,0.00,,,0.00,,2013-11-03 04:23:00,
2013-11-02 23:44:00,34.0,30.0,30.15,NW,307,0.0,0.0,85,0.00,,,0.00,,2013-11-03 04:44:00,
2013-11-02 23:52:00,34.0,30.0,30.15,NW,307,0.0,1.0,85,0.00,,,0.00,,2013-11-03 04:52:00,